Location: Burbank
(38.7788°N, 114.0429°W)
Time: 10:39:34
(UTC+00:00)

Vanguard 2 - Pass Details

Date: 14 May 2026
Orbit: 553 x 2894 km, 32.9° (Epoch: 11 June)

Event Time Altitude Azimuth Distance (km) Brightness Sun altitude
Rises 14:25:07 0° 278° (W) 6,544 11.7 21.7°
Reaches altitude 10° 14:29:59 10° 274° (W) 5,316 11.3 22.6°
Maximum altitude 14:43:53 49° 206° (SSW) 2,370 10.1 25.3°
Drops below altitude 10° 14:52:45 10° 135° (SE) 3,465 11.6 27.0°
Sets 14:55:15 0° 129° (SE) 4,170 12.0 27.5°
